Flag for Germany Past Weather in Heidenheim an der Brenz, Baden-Württemberg, Germany — Yesterday and Last 2 Weeks

Now
30 °F

Chilly.


Feels Like: 24 °F
Forecast: 31 / 38 °F
Wind: 6 mph from Southwest

Location: Laupheim Airport

Current Time: Dec 11, 2016 at 1:33:38 am

Latest Report: Dec 11, 2016 at 12:20 am


Visibility: N/A

Pressure: 30.21 "Hg

Humidity: 86%

Dew Point: 27 °F

Location of Heidenheim an der BrenzLocation

Past Weather in Heidenheim an der Brenz — Graph

°F

Heidenheim an der Brenz Temperature Yesterday

Maximum temperature yesterday: 45 °F (at 2:20 pm)
Minimum temperature yesterday: 28 °F (at 3:20 am)
Average temperature yesterday: 35 °F

High & Low Weather Summary for the Past Weeks

 TemperatureHumidityPressure
High46 °F (Dec 9, 3:20 pm)100% (Nov 26, 12:20 am)30.57 "Hg (Nov 26, 12:20 am)
Low19 °F (Nov 30, 1:20 am)51% (Nov 29, 2:20 pm)30.01 "Hg (Nov 26, 12:20 pm)
Average32 °F85%30.31 "Hg
* Reported Nov 26 12:20 am — Dec 11 12:20 am, Heidenheim an der Brenz, Weather by CustomWeather, © 2016

Note: Actual official high and low records may vary slightly from our data, if they occured in-between our weather recording intervals... More about our weather records

Advertising

Heidenheim an der Brenz Weather History for the Previous 24 Hours

Scroll right to see more
 ConditionsComfort  
Time TempWeatherWind HumidityBarometerVisibility
12:20 am
Sun, Dec 11
30 °FChilly.6 mph86%30.21 "HgN/A
11:20 pm
Sat, Dec 10
32 °FChilly.7 mph80%30.21 "HgN/A
10:20 pm32 °FPassing clouds.7 mph80%30.24 "HgN/A
9:20 pm32 °FPassing clouds.5 mph80%30.24 "HgN/A
8:20 pm34 °FPassing clouds.6 mph75%30.27 "HgN/A
7:20 pm36 °FPassing clouds.8 mph70%30.27 "HgN/A
6:20 pm37 °FPassing clouds.6 mph65%30.27 "HgN/A
5:20 pm39 °FPassing clouds.6 mph61%30.27 "HgN/A
4:20 pm43 °FPassing clouds.3 mph53%30.27 "HgN/A
3:20 pm45 °FPassing clouds.7 mph53%30.27 "HgN/A
2:20 pm45 °FPassing clouds.9 mph53%30.30 "HgN/A
1:20 pm43 °FPassing clouds.7 mph57%30.30 "HgN/A
12:20 pm41 °FPassing clouds.8 mph61%30.33 "HgN/A
11:20 am37 °FPassing clouds.9 mph70%30.33 "HgN/A
10:20 am36 °FScattered clouds.7 mph70%30.33 "HgN/A
9:20 am32 °FScattered clouds.8 mph80%30.33 "HgN/A
8:20 am32 °FScattered clouds.6 mph80%30.33 "HgN/A
7:20 am30 °FPassing clouds.6 mph80%30.33 "HgN/A
6:20 am28 °FPassing clouds.5 mph86%30.33 "HgN/A
5:20 am28 °FPassing clouds.3 mph86%30.33 "HgN/A
4:20 am28 °FPassing clouds.3 mph86%30.36 "HgN/A
3:20 am28 °FPassing clouds.2 mph86%30.36 "HgN/A
2:20 am30 °FPassing clouds.3 mph80%30.39 "HgN/A
1:20 am30 °FPassing clouds.1 mph86%30.39 "HgN/A
Weather by CustomWeather, © 2016

See weather overviewHow to use our weather pages